Location: Bayenghem
(50.7003°N, 2.0768°E)
Time: 04:45:49
(UTC+00:00)

Daily predictions for brighter satellites

Satellite Brightness Start Highest point End
(mag) Time Altitude Azimuth Time Altitude Azimuth Time Altitude Azimuth
Cosmos 2263 Rocket 4.2 03:26:47 22° ENE 03:26:47 22° ENE 03:29:03 10° NE
ATLAS 5 CENTAUR R/B 4.0 04:15:17 18° NNE 04:15:17 18° NNE 04:17:09 10° NE
COSMO-SKYMED 1 4.1 04:20:52 10° SE 04:23:43 34° ESE 04:23:43 34° ESE
Cosmos 2082 Rocket 4.4 04:25:57 13° N 04:28:04 16° NNE 04:31:28 10° ENE
Cosmos 1452 Rocket 4.1 04:42:05 46° NNE 04:42:05 46° NNE 04:45:50 10° NNE
GEOS 3 Rocket 3.6 04:39:20 10° SE 04:44:25 74° NE 04:44:43 71° NNE
Cosmos 1428 Rocket 4.4 04:42:42 43° NNW 04:45:00 84° W 04:51:18 10° S
ATLAS CENTAUR R/B 2.4 04:45:49 43° ENE 04:45:49 43° ENE 04:49:03 10° ESE
Okean O Rocket 3.6 04:50:55 10° NE 04:54:45 29° E 04:58:37 10° SSE
Timation 1 Rocket 4.2 04:59:16 63° W 04:59:41 66° NW 05:05:41 10° NNE
Cosmos 44 3.0 05:01:17 85° ESE 05:01:17 85° ESE 05:05:46 10° NE
Meteor 1-25 Rocket 4.4 05:03:22 52° NW 05:03:22 52° NW 05:08:11 10° N
Cosmos 2026 Rocket 4.0 05:05:54 53° WNW 05:06:28 54° W 05:12:33 10° SSW
Cosmos 2263 Rocket 2.5 05:08:31 45° NNW 05:08:31 45° NNW 05:13:14 10° NNE
Meteor 2-4 Rocket 3.5 05:06:02 28° NNW 05:08:59 88° W 05:14:21 10° S
ALOS 2.8 05:07:43 10° NNE 05:12:22 60° E 05:16:59 10° S
SKYMED 2 3.7 05:08:44 10° S 05:12:21 56° SSW 05:12:21 56° SSW
ADEOS Rocket 4.3 05:07:11 10° SE 05:13:06 38° ENE 05:18:32 10° N
Okean 3 3.6 05:15:28 58° SSW 05:15:28 58° SSW 05:18:59 10° S
Cosmos 405 3.2 05:15:56 67° ESE 05:15:56 67° ESE 05:19:09 10° SSE
Cosmos 371 Rocket 3.3 05:11:53 10° SSW 05:16:45 82° ESE 05:21:40 10° NNE
Cosmos 1331 Rocket 4.1 05:11:47 10° SSW 05:16:55 75° ESE 05:22:08 10° NNE
METEOR-M 4.5 05:12:22 10° NNE 05:17:44 66° ESE 05:23:03 10° S
FENGYUN 3A 4.0 05:13:12 10° NNE 05:18:35 66° ESE 05:23:55 10° S
Cosmos 2279 Rocket 3.8 05:16:32 10° SSW 05:22:44 78° W 05:29:01 10° N
Cosmos 1833 Rocket 4.0 05:19:27 15° NNW 05:23:39 35° NE 05:28:49 10° ESE
SL-23 DEB 3.4 05:26:57 66° SSE 05:26:59 66° SSE 05:30:19 10° ENE
USA 116 4.2 05:22:12 10° S 05:27:03 79° WSW 05:31:08 17° NNW
Meteor 1-19 Rocket 4.4 05:26:32 42° WNW 05:27:05 44° W 05:32:24 10° SSW
Meteor 1-14 Rocket 4.4 05:22:29 10° SSW 05:28:19 53° WNW 05:34:12 10° N
Geosat 3.9 05:24:06 10° SSE 05:29:06 66° WSW 05:30:56 38° NW
CZ-4B DEB 4.2 05:27:03 10° NNE 05:32:38 88° ESE 05:38:12 10° SSW
NOSS 3-3 (A) 4.5 05:28:55 28° NW 05:33:15 76° SW 05:41:27 10° SSE
NOSS 3-3 (C) 4.4 05:29:02 28° NW 05:33:21 76° SW 05:41:33 10° SSE
Cosmos 1110 Rocket 3.8 05:29:41 10° SSW 05:34:52 75° WNW 05:40:04 10° NNE
Helios 1A Rocket 3.4 05:31:07 10° NNE 05:35:08 59° ESE 05:39:06 10° S
MOS 1-B 4.2 05:29:26 10° NNE 05:35:15 82° WNW 05:41:02 10° SSW
Cosmos 2297 Rocket 4.3 05:37:35 11° NNW 05:37:35 11° NNW 05:39:16 10° N
Cosmos 967 Rocket 4.5 05:34:17 28° NW 05:37:55 75° SW 05:44:22 10° SSE
Cosmos 1844 Rocket 2.7 05:32:30 10° SSW 05:38:05 82° ESE 05:43:41 10° NNE
Cosmos 1634 Rocket 4.3 05:33:01 10° SW 05:38:48 40° WNW 05:44:36 10° N
Cosmos 2227 Rocket 4.2 05:42:58 11° NNW 05:43:06 11° NNW 05:44:47 10° N
USA 234 3.3 05:38:55 10° ENE 05:45:29 79° SSE 05:52:02 10° SW
BREEZE-M DEB (TANK) 4.0 05:45:58 11° SSW 05:45:58 11° SSW 05:46:30 10° S
Cosmos 1484 Rocket 4.4 05:44:45 10° N 05:46:16 20° NNW 05:46:16 20° NNW
ATLAS 3B R/B 4.3 05:42:52 10° S 05:48:47 34° ESE 05:54:40 10° NE
SL-24 R/B 3.9 05:46:29 10° S 05:50:42 75° WSW 05:54:32 13° NNW
Cosmos 1844 3.8 05:45:40 10° SSW 05:51:28 82° ESE 05:57:16 10° NNE
CZ-4B R/B 3.3 05:46:08 10° NNE 05:51:48 85° ESE 05:57:29 10° SSW
Cosmos 1908 Rocket 4.2 05:47:29 10° S 05:51:52 59° E 05:56:16 10° NNE
IRIDIUM 104 4.4 05:46:51 10° N 05:52:06 80° E 05:57:20 10° S
Cosmos 1486 Rocket 3.9 05:49:32 18° NNW 05:53:33 77° WSW 05:58:47 10° SSE
COSMOS 2406 3.2 05:49:20 17° NNW 05:53:49 88° NE 05:59:30 10° SSE
NOSS 3-2 (C) 4.2 05:48:46 10° SSW 05:54:24 53° ESE 06:00:49 10° NE
BREEZE-M DEB (TANK) 2.9 05:52:56 22° W 05:56:48 78° S 05:59:32 10° E
ATLAS 5 CENTAUR R/B 3.6 05:56:48 16° NNW 05:59:08 21° N 06:03:22 10° NE
IRIDIUM 114 4.3 05:56:00 10° N 06:01:16 87° W 06:06:29 10° S
COSMO-SKYMED 1 3.7 05:57:49 10° SSW 06:00:55 23° WSW 06:00:55 23° WSW
Cosmos 44 Rocket 3.6 05:57:32 10° SSW 06:02:21 69° SE 06:07:07 10° NE
CZ-2C R/B 4.4 06:01:08 10° SSE 06:05:47 58° ENE 06:10:30 10° N
H-2A R/B 3.4 06:03:57 10° NNE 06:07:40 57° E 06:11:25 10° S
Cosmos 304 Rocket 3.7 06:03:03 10° SSW 06:07:50 77° WNW 06:12:40 10° NNE
Cosmos 1655 Rocket 4.4 06:03:08 10° NNW 06:08:50 39° W 06:14:30 10° SSW
Cosmos 1733 Rocket 3.4 06:05:57 10° SW 06:10:01 40° WNW 06:14:08 10° N
IRIDIUM 103 4.2 06:05:12 10° N 06:10:26 74° W 06:15:37 10° S
Cosmos 1743 4.1 06:09:02 10° SSE 06:12:38 42° E 06:16:16 10° NNE
Cosmos 2082 Rocket 2.9 06:08:01 10° NNW 06:13:33 51° NE 06:19:01 10° SE
USA 81 4.0 06:09:53 10° N 06:15:08 70° W 06:20:23 10° S
Cosmos 1500 4.0 06:18:55 10° SW 06:22:17 29° WNW 06:25:39 10° N
CZ-4 R/B 4.0 06:20:19 10° NE 06:23:29 23° E 06:26:41 10° SSE
SJ-7 4.4 06:19:53 10° N 06:23:48 53° WNW 06:27:40 10° SSW
ATLAS CENTAUR R/B 2.4 06:22:02 19° WNW 06:23:54 27° WSW 06:27:14 10° S
Meteor 1-23 Rocket 4.4 06:21:38 10° NNW 06:27:16 53° W 06:32:48 10° S
Cosmos 968 Rocket 3.5 06:22:20 10° NNW 06:27:27 64° WSW 06:32:29 10° S
IRIDIUM 106 4.5 06:23:36 10° NNW 06:28:41 53° W 06:33:43 10° SSW
Cosmos 1302 Rocket 4.1 06:24:26 10° SW 06:29:39 56° WNW 06:34:53 10° NNE
Cosmos 1536 3.3 06:26:04 10° SW 06:29:53 39° WNW 06:33:44 10° N
Okean O Rocket 2.1 06:27:08 10° N 06:31:12 37° WNW 06:35:17 10° SW
Meteor 1-4 Rocket 3.8 06:28:08 10° N 06:31:43 43° ENE 06:35:13 10° SE
Cosmos 1244 Rocket 4.5 06:25:31 10° N 06:31:51 83° W 06:38:03 10° S
Feng Yun 1-1 Rocket 4.5 06:29:17 10° NNE 06:34:56 81° ESE 06:40:44 10° SSW
SMAP 3.0 06:31:45 10° NNE 06:36:26 82° WNW 06:41:05 10° SSW
Cosmos 1503 Rocket 4.1 06:32:17 10° NNW 06:37:31 60° WSW 06:42:47 10° S
Cosmos 1842 4.1 06:35:01 10° N 06:38:54 53° ENE 06:42:46 10° SSE
Cosmos 1975 Rocket 3.1 06:36:19 10° NNW 06:40:45 65° W 06:45:10 10° S
NOSS 3-2 (A) 3.5 06:35:13 10° WSW 06:41:08 67° NW 06:47:58 10° NE
Cosmos 389 Rocket 2.4 06:38:03 10° NNW 06:41:35 87° WSW 06:45:01 10° S
Cosmos 44 4.3 06:39:45 12° W 06:42:59 24° NNW 06:46:37 10° NNE
Cosmos 2098 Rocket 3.5 06:41:26 10° N 06:45:48 80° E 06:51:21 10° SSE
NOAA 12 4.4 06:41:09 10° NNE 06:46:25 75° ESE 06:51:39 10° S
Cosmos 1782 Rocket 3.5 06:42:57 10° SSW 06:47:20 69° WNW 06:51:44 10° N
SAR-Lupe-2 3.5 06:45:21 10° S 06:48:56 75° WSW 06:52:34 10° NNW
CENTAUR R/B 2.7 06:43:01 10° SW 06:49:09 84° SE 06:56:26 10° NE
ALOS 3.4 06:45:53 10° N 06:49:25 22° WNW 06:52:56 10° WSW
Meteor 1-11 Rocket 4.3 06:44:32 10° SW 06:49:53 36° WNW 06:55:21 10° N
Cosmos 1354 Rocket 4.3 06:46:22 10° NNW 06:51:30 51° WSW 06:56:38 10° S
Cosmos 2263 Rocket 3.8 06:50:14 10° WNW 06:53:14 15° NNW 06:56:23 10° N
Cosmos 1378 3.1 06:50:10 10° NNW 06:53:55 74° W 06:57:40 10° S
Cosmos 2278 Rocket 2.4 06:48:47 10° SSW 06:54:27 80° ESE 07:00:09 10° NNE
USA 238 DEB 3.8 06:47:55 10° WSW 06:54:33 57° NW 07:01:28 10° NE
USA 238 3.8 06:48:01 10° WSW 06:54:39 57° NW 07:01:34 10° NE
Cosmos 1441 Rocket 3.4 06:52:49 10° SSW 06:56:41 52° WNW 07:00:32 10° N
Cosmos 1745 Rocket 4.1 06:52:06 10° N 06:58:20 84° E 07:04:29 10° S
ADEOS Rocket 3.4 06:52:15 10° S 06:58:36 47° W 07:04:22 10° NNW
Okean-O 2.6 06:55:17 10° NNE 06:59:45 86° WNW 07:04:11 10° SSW
Cosmos 1777 Rocket 4.3 06:55:10 10° NNW 07:00:26 73° ENE 07:05:41 10° SSE
EP 3 3.6 06:59:12 10° SW 07:01:13 57° NW 07:03:22 10° NE
Aureole 3 Rocket 3.9 06:57:30 10° S 07:03:50 73° E 07:08:21 10° NNE
Cosmos 1992 Rocket 4.0 06:59:14 10° SSW 07:04:25 68° WNW 07:09:39 10° NNE
Cosmos 1666 3.8 07:02:58 10° SW 07:06:03 23° WNW 07:09:09 10° NNW
Meteor 2-14 Rocket 4.5 07:00:02 10° NNW 07:06:10 85° W 07:12:16 10° S
Okean 2 Rocket 3.2 07:02:16 10° S 07:06:40 87° E 07:11:08 10° N
Cosmos 1833 Rocket 3.0 07:02:20 10° NW 07:07:48 51° WSW 07:13:14 10° S
Helios 1A Rocket 4.3 07:07:12 10° NNW 07:09:55 18° WNW 07:12:37 10° WSW
